TimeEST,TemperatureF,Dew PointF,Humidity,Sea Level PressureIn,VisibilityMPH,Wind Direction,Wind SpeedMPH,Gust SpeedMPH,PrecipitationIn,Events,Conditions,WindDirDegrees,DateUTC
12:54 AM,27.0,24.1,89,30.04,10.0,SSW,3.5,-,N/A,,Clear,210,2014-01-13 05:54:00
1:54 AM,28.0,24.1,85,30.07,10.0,SW,5.8,-,N/A,,Clear,230,2014-01-13 06:54:00
2:54 AM,28.9,24.1,82,30.09,10.0,SSW,6.9,-,N/A,,Clear,210,2014-01-13 07:54:00
3:54 AM,28.0,24.1,85,30.09,10.0,Calm,Calm,-,N/A,,Clear,0,2014-01-13 08:54:00
4:54 AM,27.0,24.1,89,30.09,10.0,SSE,3.5,-,N/A,,Clear,160,2014-01-13 09:54:00
5:54 AM,26.1,23.0,88,30.10,9.0,Calm,Calm,-,N/A,,Clear,0,2014-01-13 10:54:00
6:54 AM,24.1,21.9,91,30.07,8.0,Calm,Calm,-,N/A,,Clear,0,2014-01-13 11:54:00
7:54 AM,24.1,21.9,91,30.10,7.0,Calm,Calm,-,N/A,,Clear,0,2014-01-13 12:54:00
8:54 AM,30.9,27.0,85,30.10,8.0,Calm,Calm,-,N/A,,Clear,0,2014-01-13 13:54:00
9:54 AM,36.0,28.9,76,30.10,10.0,SW,4.6,-,N/A,,Clear,220,2014-01-13 14:54:00
10:54 AM,42.1,30.9,65,30.07,10.0,Calm,Calm,-,N/A,,Clear,0,2014-01-13 15:54:00
11:54 AM,45.0,30.9,58,30.03,10.0,SW,5.8,-,N/A,,Clear,220,2014-01-13 16:54:00
12:54 PM,46.0,30.0,54,30.00,10.0,South,5.8,-,N/A,,Clear,190,2014-01-13 17:54:00
1:54 PM,46.0,30.9,56,29.97,10.0,South,4.6,-,N/A,,Clear,170,2014-01-13 18:54:00
2:54 PM,46.0,32.0,58,29.96,10.0,SW,3.5,-,N/A,,Clear,220,2014-01-13 19:54:00
3:54 PM,43.0,33.1,68,29.96,10.0,NW,3.5,-,N/A,,Clear,320,2014-01-13 20:54:00
4:54 PM,39.0,32.0,76,29.96,10.0,Calm,Calm,-,N/A,,Clear,0,2014-01-13 21:54:00
5:54 PM,36.0,30.9,82,29.95,10.0,Calm,Calm,-,N/A,,Clear,0,2014-01-13 22:54:00
6:54 PM,35.1,30.9,85,29.93,10.0,Calm,Calm,-,N/A,,Clear,0,2014-01-13 23:54:00
7:54 PM,34.0,30.0,85,29.91,10.0,NNW,3.5,-,N/A,,Clear,340,2014-01-14 00:54:00
8:54 PM,34.0,30.0,85,29.90,10.0,Calm,Calm,-,N/A,,Clear,0,2014-01-14 01:54:00
9:54 PM,35.1,30.9,85,29.89,10.0,Calm,Calm,-,N/A,,Clear,0,2014-01-14 02:54:00
10:54 PM,34.0,30.9,89,29.87,10.0,South,3.5,-,N/A,,Clear,170,2014-01-14 03:54:00
11:54 PM,37.9,32.0,79,29.86,10.0,SW,4.6,-,N/A,,Clear,230,2014-01-14 04:54:00